Tracking 35275 objects as of 9-Sep-2026
HD Live streaming from Space Station
objects crossing your sky now

FLOCK 4G 25

Track FLOCK 4G 25 now!
10-day predictions


NORAD ID: 62646
Int'l Code: 2025-009AP
Launch date: January 14, 2025
Source: United States (US)
Launch site: AIR FORCE WESTERN TEST RANGE (AFWTR)
Your satellite tracking list
Your tracking list is empty




NASA's NSSDC Master Catalog

Two Line Element Set (TLE):
1 62646U 25009AP  26251.95710925  .00010496  00000-0  35337-3 0  9998
2 62646  97.3977 333.7288 0002339  49.5728 310.5717 15.30952878 91736
Source of the keplerian elements: AFSPC